Regional Weather Roundup
Issued by NWS

Home | Current Version | Previous Version | Text Only | Print | Product List | Glossary On
Versions: 1 2 3 4 5 6 7 8 9 10 11 12 13 14 15 16 17 18 19 20 21 22 23 24 25 26 27 28 29 30 31 32 33 34 35 36 37 38 39 40 41 42 43 44 45 46 47 48 49 50
551
ASUS44 KLIX 202010
RWRLA
LOUISIANA WEATHER ROUNDUP
NATIONAL WEATHER SERVICE NEW ORLEANS LA
300 PM CDT MON OCT 20 2014

NOTE: "FAIR" INDICATES FEW OR NO CLOUDS BELOW 12,000 FEET WITH NO
      SIGNIFICANT WEATHER AND/OR OBSTRUCTIONS TO VISIBILITY.
      SKY/WX - SKY CONDITION AND SIGNIFICANT WEATHER.
      TMP - AIR TEMPERATURE.    DP   - DEWPOINT TEMPERATURE.
      RH  - RELATIVE HUMIDITY.  PRES - PRESSURE.
      HX  - HEAT INDEX.         WCI  - WIND CHILL INDEX.

*  THESE STATIONS ARE NOT NWS OR FAA STATIONS AND ARE NOT UNDER
   NWS QUALITY CONTROL.

LAZ040-048-061>063-065-066-069-202100-
SOUTHEAST LOUISIANA

CITY           SKY/WX    TMP DP  RH WIND       PRES   REMARKS
N.O. AUDUBON   NOT AVBL
N.O. INTL ARPT MOSUNNY   78  57  48 N7        30.00F
N.O. LAKEFRONT SUNNY     78  58  49 N9        30.01F
N.O. DOWNTOWN* FAIR      79  55  44 N8        30.01S
SLIDELL        MOSUNNY   79  53  40 N9        29.99F
BATON ROUGE    PTSUNNY   76  53  44 N5        30.01F
BOOTHVILLE     PTSUNNY   76  67  73 NE8       30.00S
BELLE CHASSE   PTSUNNY   79  57  46 E8        30.00S
BOGALUSA*        N/A     79  46  31 CALM      30.02F
NEW ROADS*     FAIR      76  54  47 N6        30.02F
GONZALES*      FAIR      78  55  44 N3        30.00S
HAMMOND*       PTSUNNY   79  48  34 CALM      30.02F
HOUMA*         SUNNY     81  59  47 NE7       29.99F
PORT FOURCHON* CLEAR     77  61  57 NE8       30.02S

$$

LAZ041-044-053-054-202100-
SOUTHWEST LOUISIANA

CITY           SKY/WX    TMP DP  RH WIND       PRES   REMARKS
LAKE CHARLES   MOSUNNY   80  56  43 NE6       30.01F
LAFAYETTE      MOSUNNY   80  56  43 CALM      30.01F
PATTERSON      NOT AVBL
SALT POINT       N/A     79  62  56 CALM      29.98F
NEW IBERIA     SUNNY     81  55  40 MISG      30.01F
CHENAULT AIRPK NOT AVBL

$$

LAZ027-028-202100-
CENTRAL LOUISIANA

CITY           SKY/WX    TMP DP  RH WIND       PRES   REMARKS
FORT POLK      MOSUNNY   77  51  39 NE7       30.02F
ALEXANDRIA INT MOSUNNY   78  49  35 NE3       30.01F
ALEXANDRIA     SUNNY     79  50  36 NE5       30.03F

$$

LAZ001-002-202100-
NORTHWEST LOUISIANA

CITY           SKY/WX    TMP DP  RH WIND       PRES   REMARKS
SHREVEPORT     MOSUNNY   77  52  41 N5        30.03F
BARKSDALE AFB  SUNNY     78  49  36 E2        30.04F
DTN SHREVEPORT SUNNY     76  48  37 N3        30.04F

$$

LAZ014-016-202100-
NORTHEAST LOUISIANA

CITY           SKY/WX    TMP DP  RH WIND       PRES   REMARKS
MONROE         SUNNY     75  50  41 N6        30.05F
TALLULAH       SUNNY     74  48  39 N3        30.04F

$$




USA.gov is the U.S. government's official web portal to all federal, state and local government web resources and services.